• MPC Preparation (Info)

  • MPEC 2016-O09 : 2014 XQ40

    The following Minor Planet Electronic Circular may be linked-to from your own Web pages, but must not otherwise be redistributed electronically.

    A form allowing access to any MPEC is at the bottom of this page.


    Read MPEC 2016-O08 Read MPEC 2016-O10


    M.P.E.C. 2016-O09                                Issued 2016 July 16, 00:20 UT
    
         The Minor Planet Electronic Circulars contain information on unusual
             minor planets and routine data on comets.  They are published
        on behalf of Division F of the International Astronomical Union by the
              Minor Planet Center, Smithsonian Astrophysical Observatory,
                              Cambridge, MA 02138, U.S.A.
    
                 Prepared using the Tamkin Foundation Computer Network
    
                                  MPC@CFA.HARVARD.EDU
                URL https://www.minorplanetcenter.net/    ISSN 1523-6714
    
                                       2014 XQ40
    
    Observations:
         K14X40Q  C2012 01 25.42126 09 56 13.647-02 54 26.81         21.4 wLEO009F51
         K14X40Q  C2012 01 25.43554 09 56 13.529-02 54 26.55         21.5 wLEO009F51
         K14X40Q  C2012 01 25.44983 09 56 13.407-02 54 26.40         21.4 wLEO009F51
         K14X40Q  C2012 01 25.46420 09 56 13.286-02 54 26.13         21.5 wLEO009F51
         K14X40Q  C2013 02 03.45793 10 17 52.212-05 33 29.06         21.4 rLEO009F51
         K14X40Q  C2013 02 03.46958 10 17 52.094-05 33 28.99         21.3 rLEO009F51
         K14X40Q  C2013 02 03.48211 10 17 51.997-05 33 28.69         21.3 iLEO009F51
         K14X40Q  C2013 02 03.49486 10 17 51.894-05 33 28.44         21.6 iLEO009F51
         K14X40Q* C2014 12 10.63801 11 07 49.259-10 21 22.24         21.3 iLEO009F51
         K14X40Q  C2014 12 10.64197 11 07 49.255-10 21 22.45         21.2 iLEO009F51
         K14X40Q  C2014 12 10.64607 11 07 49.269-10 21 22.86         21.3 iLEO009F51
         K14X40Q  C2014 12 10.65004 11 07 49.288-10 21 23.16         21.4 iLEO009F51
         K14X40Q  C2014 12 18.60245 11 08 07.872-10 30 42.49         21.2 iLEO009F51
         K14X40Q  C2014 12 18.62516 11 08 07.916-10 30 43.93         21.0 iLEO009F51
         K14X40Q  C2014 12 18.63641 11 08 07.909-10 30 44.79         21.0 iLEO009F51
         K14X40Q  C2015 01 16.57772 11 07 23.669-10 51 47.38         21.4 rLEO009F51
         K14X40Q  C2015 01 16.58836 11 07 23.611-10 51 47.57         21.6 rLEO009F51
         K14X40Q  C2015 01 16.59917 11 07 23.561-10 51 47.75         21.7 rLEO009F51
         K14X40Q  C2015 01 20.49635 11 07 05.167-10 52 55.62         21.5 wLEO009F51
         K14X40Q  C2015 01 20.50949 11 07 05.094-10 52 55.85         21.5 wLEO009F51
         K14X40Q  C2015 01 20.52262 11 07 05.031-10 52 55.90         21.6 wLEO009F51
         K14X40Q  C2015 01 20.53578 11 07 04.958-10 52 56.13         21.6 wLEO009F51
         K14X40Q  C2015 01 22.50799 11 06 54.635-10 53 20.62         21.4 wLEO009F51
         K14X40Q  C2015 01 22.52058 11 06 54.566-10 53 20.81         21.4 wLEO009F51
         K14X40Q  C2015 01 22.53315 11 06 54.490-10 53 20.92         21.5 wLEO009F51
         K14X40Q  C2015 01 22.54574 11 06 54.426-10 53 20.99         21.4 wLEO009F51
         K14X40Q  C2015 03 22.35796 10 58 55.108-10 21 26.38         21.4 wLEO009F51
         K14X40Q  C2015 03 22.36852 10 58 55.022-10 21 25.80         21.4 wLEO009F51
         K14X40Q  C2015 03 22.37909 10 58 54.932-10 21 25.08         21.4 wLEO009F51
         K14X40Q  C2015 03 22.38963 10 58 54.834-10 21 24.53         21.4 wLEO009F51
    
    Observer details:
    F51 Pan-STARRS 1, Haleakala.  Observers B. Gibson, T. Goggia, N. Primak,
        A. Schultz, M. Willman.  Measurers K. Chambers, S. Chastel, Y.-T. Chen,
        L. Denneau, H. Flewelling, M. Holman, M. Huber, R. Jedicke, M. Lackner,
        E. Lilly, H.-W. Lin, E. Magnier, M. Micheli, M. Payne, P. Veres,
        R. Wainscoat, C. Waters, R. Weryk.  1.8-m Ritchey-Chretien + CCD.
    
    Orbital elements:
    2014 XQ40
    Epoch 2016 July 31.0 TT = JDT 2457600.5                 MPC
    M   0.95838              (2000.0)            P               Q
    n   0.00172607     Peri.  268.62334     -0.95156573     -0.17772905
    a  68.8277614      Node   261.09385     +0.26010106     -0.90043121
    e   0.7384615      Incl.   14.71020     -0.16392104     -0.39703403
    P 571              H    8.7           G   0.15           U   0
    Residuals in seconds of arc
    120125 F51  0.0   0.1-    141210 F51  0.1-  0.0     150120 F51  0.0   0.0
    120125 F51  0.0   0.0     141210 F51  0.0   0.0     150120 F51  0.0   0.0
    120125 F51  0.0   0.1-    141218 F51  0.0   0.1-    150122 F51  0.0   0.0
    120125 F51  0.0   0.0     141218 F51  0.2+  0.0     150122 F51  0.0   0.1-
    130203 F51  0.1+  0.3+    141218 F51  0.1-  0.2-    150122 F51  0.1-  0.0
    130203 F51  0.1-  0.1+    150116 F51  0.1+  0.0     150122 F51  0.0   0.0
    130203 F51  0.0   0.1+    150116 F51  0.0   0.0     150322 F51  0.1-  0.1+
    130203 F51  0.2+  0.0     150116 F51  0.0   0.0     150322 F51  0.0   0.0
    141210 F51  0.1+  0.1+    150120 F51  0.0   0.1-    150322 F51  0.1+  0.1+
    141210 F51  0.1-  0.1+    150120 F51  0.1-  0.1-    150322 F51  0.0   0.1-
    
    Ephemeris:
    2014 XQ40                a,e,i = 68.83, 0.74, 15                 q = 18.001
    Date    TT    R. A. (2000) Decl.     Delta      r     Elong.  Phase     V
    2016 06 16    11 19 14.5 -11 31 49  18.0561 18.0885    90.2     3.2    21.6
    ...
    2016 07 01    11 20 51.6 -11 28 59  18.3004 18.0937    76.7     3.1    21.6
    ...
    2016 07 09    11 21 59.8 -11 29 39  18.4260 18.0966    69.6     3.0    21.6
    ...
    2016 07 15    11 22 57.9 -11 31 09  18.5163 18.0987    64.3     2.9    21.6
    2016 07 16    11 23 08.1 -11 31 29  18.5310 18.0991    63.4     2.9    21.6
    2016 07 17    11 23 18.5 -11 31 51  18.5456 18.0995    62.5     2.9    21.6
    ...
    2016 07 23    11 24 23.7 -11 34 29  18.6302 18.1016    57.3     2.7    21.6
    ...
    2016 07 31    11 25 58.3 -11 39 18  18.7350 18.1046    50.4     2.5    21.6
    ...
    2016 08 15    11 29 15.2 -11 52 07  18.9012 18.1102    37.7     2.0    21.6
    
    A. U. Tomatic                (C) Copyright 2016 MPC           M.P.E.C. 2016-O09
    

    Read MPEC 2016-O08 Read MPEC 2016-O10


    MPEC number:

    Enter an MPEC number in one of the following forms:

    • 1997-B01 (the full form)
    • J97B01 (the packed version of the full form)
    • B01 (the abbreviated form)